Погода в Старой Купавне

Россия / Московская область     55°48′38″N   38°10′32″E
темп.,
°C
ветер,
м/с
пор.,
м/с
влажн.,
%
обл.,
%
осадки,
мм/ч
давл.,
гПа
погр.,
м
16 июня, ср
ср1600:00+16ссз269614 3.1 1010117
03:00+16сз379413 3.9 1010194
06:00+16ссз38910 0.0 1010251
09:00+21ссз576186 0.0 1011799
12:00+22ссз566063 0.3 10121393
15:00+24ссз454538 0.3 10131983
18:00+21с56475 0.0 10151449
21:00+15с24671 0.0 101758
17 июня, чт
чт1700:00+12с23700 0.0 101936
03:00+11с23722 0.0 102158
06:00+14с24705 0.0 1022107
09:00+19с34475 0.0 1023734
12:00+22ссв34345 0.0 10241642
15:00+24с343494 0.0 10242034
18:00+22с23464 0.0 10241590
21:00+17вюв11674 0.0 102511
18 июня, пт
пт1800:00+15ююз22720 0.0 102614
03:00+13юз22770 0.0 102714
06:00+16зюз13735 0.0 102892
09:00+22зюз22515 0.0 1028623
12:00+25юз224073 0.0 10271785
15:00+26ююз43424 0.0 10271886
18:00+24ююз45535 0.0 1026760
21:00+19ююз39810 0.0 1026215
19 июня, сб
сб1900:00+16юз368441 0.0 1027121
03:00+15юз378569 0.0 1027127
06:00+17юз26800 0.0 1028184
09:00+23юз34580 0.0 1028671
12:00+25юз44470 0.0 10271286
15:00+26ююз44403 0.0 10251424
18:00+25ююз3451100 0.0 1025741
21:00+19ююз378195 0.0 1025135
20 июня, вс
вс2000:00+17юз35854 0.0 102692
03:00+16юз24925 0.0 102669
06:00+18юз24835 0.0 1026142
09:00+23юз23610 0.0 1026697
12:00+26ююз44480 0.0 10251263
15:00+27ююз44470 0.0 10241444
18:00+25ю34560 0.0 10231229
21:00+19ю35871 0.0 102391